Regional Weather Roundup
Issued by NWS

Home | Current Version | Previous Version | Text Only | Print | Product List | Glossary Off
Versions: 1 2 3 4 5 6 7 8 9 10 11 12 13 14 15 16 17 18 19 20 21 22 23 24 25 26 27 28 29 30 31 32 33 34 35 36 37 38 39 40 41 42 43 44 45 46 47 48 49 50

000
ASUS43 KBIS 282020
RWRND

NORTH DAKOTA REGIONAL WEATHER ROUNDUP
NATIONAL WEATHER SERVICE BISMARCK ND
300 PM CDT MON JUL 28 2014

NOTE: "FAIR" INDICATES FEW OR NO CLOUDS BELOW 12,000 FEET WITH NO
SIGNIFICANT WEATHER AND/OR OBSTRUCTIONS TO VISIBILITY.


NDZ001>003-009>011-017-282100-
NORTHWEST NORTH DAKOTA

CITY           SKY/WX    TMP DP  RH WIND       PRES   REMARKS
WILLISTON      PTSUNNY   81  51  35 VRB6      30.27F
MINOT          MOSUNNY   73  53  49 N5        30.28F
MINOT AFB      MOSUNNY   72  54  53 VRB1      30.28F
$$

NDZ018>021-031>035-040>046-282100-
SOUTHWEST NORTH DAKOTA

CITY           SKY/WX    TMP DP  RH WIND       PRES   REMARKS
BISMARCK       MOSUNNY   75  49  39 N7        30.30F
DICKINSON      MOSUNNY   77  52  41 NE6       30.29F
GARRISON         N/A     72  55  55 SE3       30.30F
HETTINGER ARPT PTSUNNY   77  52  41 VRB3      30.31F
$$

NDZ004>008-012>016-024-026-027-054-282100-
NORTHEAST NORTH DAKOTA

CITY           SKY/WX    TMP DP  RH WIND       PRES   REMARKS
GRAND FORKS    PTSUNNY   74  56  53 N12       30.23F
GRND FRKS AFB  PTSUNNY   74  57  54 N8        30.25F
DEVILS LAKE    PTSUNNY   72  52  49 N9        30.26S
$$

NDZ022-023-025-028>030-036>039-047>053-282100-
SOUTHEAST NORTH DAKOTA

CITY           SKY/WX    TMP DP  RH WIND       PRES   REMARKS
FARGO          CLOUDY    73  52  47 NW5       30.24F
JAMESTOWN      CLOUDY    70  51  51 N10       30.28S
$$




USA.gov is the U.S. government's official web portal to all federal, state and local government web resources and services.